Weather in Kazach'ye

Russia / Sakha (Yakutia) Republic     70°44′40″N   136°12′29″E
temp.,
°C
wind,
m/s
gust,
m/s
humid.,
%
clouds,
%
prec.,
mm/h
press.,
hPa
HPBL,
m
25 october, mon
mon2501:00−19ene349694 0.1 1003130
04:00−20ene349772 0.1 100399
07:00−21ene349851 0.1 100360
10:00−23ene339837 0.1 100440
13:00−22e229811 0.0 100448
16:00−24e22999 0.0 100512
19:00−26ese2210038 0.0 100613
22:00−26ese2210042 0.0 100614
26 october, tue
tue2601:00−26ese2210054 0.0 100622
04:00−24ese239980 0.0 100743
07:00−22ese239976 0.0 100745
10:00−22ese239964 0.1 100742
13:00−20se249968 0.0 100769
16:00−20ese339965 0.0 100746
19:00−20ese23100100 0.0 100733
22:00−18ese3499100 0.0 100652
27 october, wed
wed2701:00−16ese349694 0.0 100666
04:00−15se3393100 0.0 100655
07:00−14se229476 0.0 100626
10:00−13sse2293100 0.0 100626
13:00−12sse1192100 0.0 100611
16:00−12sw1192100 0.0 100610
19:00−11w1197100 0.7 100718
22:00−12w229772 1.6 100820
28 october, thu
thu2801:00−13sw119785 0.2 100810
04:00−14sse229987 0.3 100815
07:00−17se349963 0.0 100739
10:00−16ese489753 0.0 100590
13:00−16ese499774 0.0 1003138
16:00−15ese3696100 0.0 100194
19:00−12ese2493100 0.0 100080
22:00−11wsw1197100 0.3 100014
29 october, fri
fri2901:00−13nw2297100 0.3 100132
04:00−14w2297100 0.3 100216
07:00−14wsw2296100 0.0 100329
10:00−16w2395100 0.1 100538
13:00−15w229398 0.0 100631
16:00−16w2295100 0.0 100817
19:00−13w51193100 0.0 1010178
22:00−13w71389100 0.0 1012293